Location: Boca do Mato
(22.9085°S, 43.2930°W)
Time: 22:20:45
(UTC+00:00)

Cosmos 1707 - Pass Details

Date: 14 July 2020
Orbit: 517 x 529 km, 82.5° (Epoch: 10 August)

Event Time Altitude Azimuth Distance (km) Brightness Sun altitude
Rises 08:10:50 0° 339° (NNW) 2,652 6.3 -18.8°
Reaches altitude 10° 08:13:05 10° 330° (NNW) 1,772 5.3 -18.3°
Enters shadow 08:15:37 30° 297° (WNW) 973 3.7 -17.7°
